| time (UTC) | temp C | wind direction | speed KPH | gust KPH | rain 1hr cm | rain 24hr cm | rain mn cm | humidity % | barometer mb |
| 20260505100934 | 13 | 282 | 3.2 | 4.8 | 0.00 | 0.00 | 0.00 | 61 | 1007.0 |
| 20260505100432 | 13 | 93 | 3.2 | 3.2 | 0.00 | 0.00 | 0.00 | 62 | 1006.8 |
| 20260505095927 | 13 | 55 | 1.6 | 3.2 | 0.00 | 0.00 | 0.00 | 63 | 1007.1 |
| 20260505095424 | 13 | 123 | 1.6 | 3.2 | 0.00 | 0.00 | 0.00 | 63 | 1007.0 |
| 20260505094920 | 13 | 121 | 0.0 | 0.0 | 0.00 | 0.00 | 0.00 | 63 | 1007.0 |
| 20260505094418 | 13 | 150 | 0.0 | 1.6 | 0.00 | 0.00 | 0.00 | 65 | 1006.8 |
| 20260505093914 | 13 | 47 | 1.6 | 3.2 | 0.00 | 0.00 | 0.00 | 66 | 1006.4 |
| 20260505093411 | 13 | 85 | 3.2 | 4.8 | 0.00 | 0.00 | 0.00 | 66 | 1006.6 |
| 20260505092908 | 13 | 106 | 3.2 | 4.8 | 0.00 | 0.00 | 0.00 | 66 | 1006.8 |
| 20260505092406 | 13 | 131 | 1.6 | 3.2 | 0.00 | 0.00 | 0.00 | 68 | 1006.6 |
| 20260505091903 | 13 | 119 | 1.6 | 1.6 | 0.00 | 0.00 | 0.00 | 69 | 1006.5 |
| 20260505091401 | 13 | 115 | 1.6 | 3.2 | 0.00 | 0.00 | 0.00 | 71 | 1006.2 |
| 20260505090858 | 13 | 114 | 1.6 | 3.2 | 0.00 | 0.00 | 0.00 | 72 | 1006.4 |
| 20260505090356 | 13 | 152 | 1.6 | 1.6 | 0.00 | 0.00 | 0.00 | 73 | 1006.5 |
| 20260505085853 | 13 | 97 | 4.8 | 4.8 | 0.00 | 0.00 | 0.00 | 74 | 1006.5 |
| 20260505085351 | 14 | 124 | 4.8 | 9.7 | 0.00 | 0.00 | 0.00 | 75 | 1006.3 |
| 20260505084849 | 14 | 118 | 0.0 | 1.6 | 0.00 | 0.00 | 0.00 | 75 | 1006.2 |
| 20260505084347 | 14 | 85 | 3.2 | 3.2 | 0.00 | 0.00 | 0.00 | 75 | 1006.2 |
| 20260505083844 | 14 | 145 | 1.6 | 1.6 | 0.00 | 0.00 | 0.00 | 75 | 1006.1 |
| 20260505083342 | 15 | 39 | 3.2 | 4.8 | 0.00 | 0.00 | 0.00 | 76 | 1005.9 |
| 20260505082838 | 15 | 334 | 4.8 | 4.8 | 0.00 | 0.00 | 0.00 | 77 | 1005.9 |
| 20260505082334 | 15 | 123 | 1.6 | 3.2 | 0.00 | 0.00 | 0.00 | 76 | 1005.5 |
| 20260505081831 | 15 | 114 | 0.0 | 1.6 | 0.00 | 0.00 | 0.00 | 77 | 1005.6 |
| 20260505081327 | 16 | 106 | 1.6 | 1.6 | 0.00 | 0.00 | 0.00 | 79 | 1005.4 |
| 20260505080825 | 16 | 35 | 3.2 | 4.8 | 0.00 | 0.00 | 0.00 | 79 | 1005.5 |
| 20260505080320 | 16 | 76 | 1.6 | 3.2 | 0.00 | 0.00 | 0.00 | 79 | 1005.2 |
| 20260505075816 | 16 | 75 | 6.4 | 9.7 | 0.00 | 0.00 | 0.00 | 78 | 1005.3 |
| 20260505075313 | 16 | 16 | 4.8 | 9.7 | 0.00 | 0.00 | 0.00 | 78 | 1005.3 |
| 20260505074810 | 16 | 113 | 0.0 | 0.0 | 0.00 | 0.00 | 0.00 | 78 | 1005.0 |
| 20260505074307 | 16 | 119 | 0.0 | 0.0 | 0.00 | 0.00 | 0.00 | 80 | 1004.9 |
| 20260505073805 | 16 | 98 | 1.6 | 1.6 | 0.00 | 0.00 | 0.00 | 81 | 1005.3 |
| 20260505073303 | 16 | 121 | 0.0 | 0.0 | 0.00 | 0.00 | 0.00 | 81 | 1005.0 |
| 20260505072759 | 16 | 109 | 0.0 | 1.6 | 0.00 | 0.00 | 0.00 | 83 | 1005.1 |
| 20260505072255 | 16 | 187 | 1.6 | 3.2 | 0.00 | 0.00 | 0.00 | 84 | 1004.8 |
| 20260505071751 | 17 | 109 | 0.0 | 0.0 | 0.00 | 0.00 | 0.00 | 83 | 1005.0 |
| 20260505071248 | 18 | 74 | 4.8 | 8.0 | 0.00 | 0.00 | 0.00 | 79 | 1005.0 |
| 20260505070746 | 18 | 85 | 1.6 | 3.2 | 0.00 | 0.00 | 0.00 | 76 | 1004.9 |
| 20260505070242 | 19 | 124 | 0.0 | 0.0 | 0.00 | 0.00 | 0.00 | 77 | 1004.7 |
| 20260505065737 | 19 | 74 | 0.0 | 0.0 | 0.00 | 0.00 | 0.00 | 78 | 1004.7 |
| 20260505065235 | 19 | 124 | 0.0 | 0.0 | 0.00 | 0.00 | 0.00 | 78 | 1004.6 |
| 20260505064731 | 19 | 119 | 0.0 | 0.0 | 0.00 | 0.00 | 0.00 | 77 | 1004.7 |
| 20260505064229 | 19 | 123 | 0.0 | 0.0 | 0.00 | 0.00 | 0.00 | 75 | 1004.5 |
| 20260505063727 | 19 | 109 | 1.6 | 1.6 | 0.00 | 0.00 | 0.00 | 73 | 1004.6 |
| 20260505063223 | 20 | 104 | 1.6 | 3.2 | 0.00 | 0.00 | 0.00 | 73 | 1004.9 |
| 20260505062719 | 20 | 120 | 0.0 | 0.0 | 0.00 | 0.00 | 0.00 | 79 | 1004.7 |
| 20260505062217 | 20 | 121 | 0.0 | 0.0 | 0.00 | 0.00 | 0.00 | 77 | 1004.8 |
| 20260505061714 | 20 | 124 | 0.0 | 0.0 | 0.00 | 0.00 | 0.00 | 76 | 1004.6 |
| 20260505061212 | 20 | 122 | 0.0 | 0.0 | 0.00 | 0.00 | 0.00 | 76 | 1004.5 |
| 20260505060709 | 21 | 124 | 0.0 | 0.0 | 0.00 | 0.00 | 0.00 | 75 | 1004.3 |
| 20260505060206 | 21 | 125 | 0.0 | 0.0 | 0.00 | 0.00 | 0.00 | 75 | 1004.0 |
| 20260505055701 | 21 | 125 | 0.0 | 0.0 | 0.00 | 0.00 | 0.00 | 75 | 1003.9 |
| 20260505055158 | 21 | 126 | 0.0 | 0.0 | 0.00 | 0.00 | 0.00 | 75 | 1003.6 |
| 20260505054655 | 21 | 121 | 0.0 | 0.0 | 0.00 | 0.00 | 0.00 | 75 | 1003.8 |
| 20260505054153 | 21 | 117 | 0.0 | 0.0 | 0.00 | 0.00 | 0.00 | 76 | 1003.7 |
| 20260505053650 | 21 | 112 | 0.0 | 0.0 | 0.00 | 0.00 | 0.00 | 76 | 1003.7 |
| 20260505053147 | 21 | 126 | 0.0 | 0.0 | 0.00 | 0.00 | 0.00 | 76 | 1003.7 |
| 20260505052644 | 21 | 136 | 1.6 | 1.6 | 0.00 | 0.00 | 0.00 | 76 | 1003.5 |
| 20260505052141 | 21 | 130 | 0.0 | 0.0 | 0.00 | 0.00 | 0.00 | 77 | 1003.8 |
| 20260505051637 | 21 | 116 | 0.0 | 0.0 | 0.00 | 0.00 | 0.00 | 77 | 1003.6 |
| 20260505051136 | 21 | 129 | 0.0 | 0.0 | 0.00 | 0.00 | 0.00 | 77 | 1003.9 |
| 20260505050633 | 21 | 104 | 0.0 | 0.0 | 0.00 | 0.00 | 0.00 | 76 | 1003.9 |
| 20260505050132 | 21 | 116 | 1.6 | 1.6 | 0.00 | 0.00 | 0.00 | 76 | 1003.8 |
| 20260505041601 | 21 | 198 | 0.0 | 0.0 | 0.00 | 0.00 | 0.00 | 77 | 1002.8 |
| 20260505041059 | 21 | 119 | 0.0 | 0.0 | 0.00 | 0.00 | 0.00 | 77 | 1003.1 |
| 20260505040556 | 21 | 81 | 0.0 | 1.6 | 0.00 | 0.00 | 0.00 | 76 | 1003.2 |
| 20260505040053 | 21 | 134 | 0.0 | 1.6 | 0.00 | 0.00 | 0.00 | 76 | 1002.8 |
| 20260505035549 | 21 | 124 | 1.6 | 3.2 | 0.00 | 0.00 | 0.00 | 76 | 1003.0 |
| 20260505035046 | 21 | 72 | 1.6 | 3.2 | 0.00 | 0.00 | 0.00 | 76 | 1003.1 |
| 20260505034542 | 21 | 97 | 1.6 | 3.2 | 0.00 | 0.00 | 0.00 | 74 | 1003.0 |
| 20260505034039 | 22 | 68 | 1.6 | 3.2 | 0.00 | 0.00 | 0.00 | 73 | 1002.9 |
| 20260505033536 | 22 | 121 | 1.6 | 1.6 | 0.00 | 0.00 | 0.00 | 72 | 1002.9 |
| 20260505033034 | 22 | 219 | 1.6 | 4.8 | 0.00 | 0.00 | 0.00 | 71 | 1002.8 |
| 20260505032532 | 22 | 119 | 0.0 | 0.0 | 0.00 | 0.00 | 0.00 | 73 | 1002.8 |
| 20260505032028 | 22 | 130 | 1.6 | 1.6 | 0.00 | 0.00 | 0.00 | 71 | 1002.8 |
| 20260505031526 | 22 | 113 | 0.0 | 1.6 | 0.00 | 0.00 | 0.00 | 70 | 1003.3 |
| 20260505031022 | 22 | 83 | 0.0 | 1.6 | 0.00 | 0.00 | 0.00 | 69 | 1003.3 |
| 20260505030519 | 22 | 226 | 1.6 | 3.2 | 0.00 | 0.00 | 0.00 | 68 | 1003.3 |
| 20260505030015 | 22 | 119 | 0.0 | 1.6 | 0.00 | 0.00 | 0.00 | 67 | 1003.2 |
| 20260505025511 | 22 | 132 | 0.0 | 0.0 | 0.00 | 0.00 | 0.00 | 67 | 1003.0 |
| 20260505025010 | 22 | 132 | 1.6 | 1.6 | 0.00 | 0.00 | 0.00 | 67 | 1002.9 |
| 20260505024506 | 23 | 121 | 1.6 | 3.2 | 0.00 | 0.00 | 0.00 | 66 | 1003.2 |
| 20260505024003 | 23 | 104 | 1.6 | 1.6 | 0.00 | 0.00 | 0.00 | 65 | 1003.3 |
| 20260505023500 | 23 | 126 | 0.0 | 0.0 | 0.00 | 0.00 | 0.00 | 65 | 1003.1 |
| 20260505022958 | 23 | 93 | 3.2 | 3.2 | 0.00 | 0.00 | 0.00 | 64 | 1003.4 |
| 20260505022455 | 23 | 92 | 1.6 | 1.6 | 0.00 | 0.00 | 0.00 | 64 | 1003.0 |
| 20260505021952 | 23 | 94 | 3.2 | 3.2 | 0.00 | 0.00 | 0.00 | 64 | 1003.1 |
| 20260505021449 | 23 | 132 | 0.0 | 1.6 | 0.00 | 0.00 | 0.00 | 64 | 1003.4 |
| 20260505020944 | 23 | 84 | 0.0 | 1.6 | 0.00 | 0.00 | 0.00 | 64 | 1003.3 |
| 20260505020440 | 23 | 111 | 1.6 | 1.6 | 0.00 | 0.00 | 0.00 | 63 | 1003.6 |
| 20260505015937 | 23 | 119 | 0.0 | 0.0 | 0.00 | 0.00 | 0.00 | 63 | 1003.6 |
| 20260505015434 | 23 | 123 | 0.0 | 0.0 | 0.00 | 0.00 | 0.00 | 63 | 1003.7 |
| 20260505014931 | 23 | 149 | 0.0 | 0.0 | 0.00 | 0.00 | 0.00 | 62 | 1003.6 |
| 20260505014428 | 23 | 130 | 0.0 | 0.0 | 0.00 | 0.00 | 0.00 | 62 | 1003.3 |
| 20260505013925 | 23 | 124 | 0.0 | 0.0 | 0.00 | 0.00 | 0.00 | 62 | 1003.3 |
| 20260505013422 | 23 | 144 | 0.0 | 0.0 | 0.00 | 0.00 | 0.00 | 61 | 1002.7 |
| 20260505012920 | 23 | 121 | 0.0 | 0.0 | 0.00 | 0.00 | 0.00 | 60 | 1002.9 |
| 20260505012418 | 23 | 107 | 0.0 | 0.0 | 0.00 | 0.00 | 0.00 | 59 | 1002.9 |
| 20260505011914 | 23 | 123 | 0.0 | 0.0 | 0.00 | 0.00 | 0.00 | 58 | 1002.6 |
| 20260505011410 | 23 | 117 | 0.0 | 1.6 | 0.00 | 0.00 | 0.00 | 58 | 1002.8 |
| 20260505010907 | 24 | 116 | 0.0 | 0.0 | 0.00 | 0.00 | 0.00 | 58 | 1002.4 |
| 20260505010403 | 24 | 122 | 0.0 | 0.0 | 0.00 | 0.00 | 0.00 | 57 | 1002.7 |
| 20260505005859 | 24 | 133 | 0.0 | 0.0 | 0.00 | 0.00 | 0.00 | 57 | 1002.3 |
| 20260505005356 | 24 | 124 | 0.0 | 0.0 | 0.00 | 0.00 | 0.00 | 56 | 1002.7 |
| 20260505004854 | 25 | 127 | 0.0 | 0.0 | 0.00 | 0.00 | 0.00 | 55 | 1002.4 |
| 20260505004350 | 25 | 122 | 0.0 | 0.0 | 0.00 | 0.00 | 0.00 | 55 | 1002.3 |
| 20260505003847 | 25 | 129 | 0.0 | 1.6 | 0.00 | 0.00 | 0.00 | 54 | 1002.4 |
| 20260505003344 | 25 | 131 | 1.6 | 1.6 | 0.00 | 0.00 | 0.00 | 53 | 1002.5 |
| 20260505002840 | 25 | 121 | 0.0 | 0.0 | 0.00 | 0.00 | 0.00 | 53 | 1002.6 |
| 20260505002337 | 25 | 122 | 0.0 | 0.0 | 0.00 | 0.00 | 0.00 | 52 | 1002.5 |
| 20260505001836 | 25 | 128 | 0.0 | 1.6 | 0.00 | 0.00 | 0.00 | 52 | 1002.7 |
| 20260505001332 | 26 | 141 | 0.0 | 0.0 | 0.00 | 0.00 | 0.00 | 51 | 1002.7 |
| 20260505000829 | 26 | 115 | 0.0 | 0.0 | 0.00 | 0.00 | 0.00 | 51 | 1002.7 |
| 20260505000327 | 26 | 121 | 0.0 | 0.0 | 0.00 | 0.00 | 0.00 | 50 | 1002.6 |
| 20260504235824 | 26 | 115 | 4.8 | 9.7 | 0.00 | 0.00 | 0.00 | 49 | 1002.8 |
| 20260504235321 | 26 | 121 | 1.6 | 3.2 | 0.00 | 0.00 | 0.00 | 48 | 1002.8 |
| 20260504234817 | 26 | 113 | 0.0 | 1.6 | 0.00 | 0.00 | 0.00 | 49 | 1002.6 |
| 20260504234315 | 26 | 166 | 1.6 | 3.2 | 0.00 | 0.00 | 0.00 | 48 | 1002.8 |
| 20260504233811 | 26 | 125 | 1.6 | 3.2 | 0.00 | 0.00 | 0.00 | 48 | 1002.7 |
| 20260504233307 | 26 | 121 | 1.6 | 1.6 | 0.00 | 0.00 | 0.00 | 48 | 1002.8 |
| 20260504232804 | 26 | 117 | 0.0 | 1.6 | 0.00 | 0.00 | 0.00 | 48 | 1002.9 |
| 20260504232303 | 27 | 112 | 4.8 | 9.7 | 0.00 | 0.00 | 0.00 | 47 | 1003.0 |
| 20260504231758 | 27 | 110 | 4.8 | 8.0 | 0.00 | 0.00 | 0.00 | 47 | 1002.9 |
| 20260504231254 | 27 | 96 | 0.0 | 1.6 | 0.00 | 0.00 | 0.00 | 47 | 1002.7 |
| 20260504230750 | 27 | 112 | 1.6 | 1.6 | 0.00 | 0.00 | 0.00 | 46 | 1003.0 |
| 20260504230249 | 28 | 142 | 1.6 | 1.6 | 0.00 | 0.00 | 0.00 | 45 | 1002.7 |
| 20260504225747 | 28 | 110 | 4.8 | 8.0 | 0.00 | 0.00 | 0.00 | 45 | 1002.6 |
| 20260504225243 | 28 | 262 | 6.4 | 12.9 | 0.00 | 0.00 | 0.00 | 45 | 1002.8 |
| 20260504224740 | 28 | 127 | 3.2 | 3.2 | 0.00 | 0.00 | 0.00 | 45 | 1002.8 |
| 20260504224237 | 28 | 117 | 6.4 | 14.5 | 0.00 | 0.00 | 0.00 | 43 | 1002.8 |
| 20260504223733 | 29 | 114 | 0.0 | 1.6 | 0.00 | 0.00 | 0.00 | 44 | 1002.7 |
| 20260504223229 | 29 | 105 | 1.6 | 3.2 | 0.00 | 0.00 | 0.00 | 44 | 1002.6 |
| 20260504222727 | 29 | 117 | 3.2 | 4.8 | 0.00 | 0.00 | 0.00 | 43 | 1002.8 |
| 20260504222223 | 30 | 126 | 1.6 | 1.6 | 0.00 | 0.00 | 0.00 | 43 | 1002.8 |
| 20260504221721 | 30 | 119 | 1.6 | 1.6 | 0.00 | 0.00 | 0.00 | 43 | 1002.7 |
| 20260504221218 | 29 | 148 | 1.6 | 1.6 | 0.00 | 0.00 | 0.00 | 43 | 1002.8 |
| 20260504220714 | 29 | 40 | 1.6 | 1.6 | 0.00 | 0.00 | 0.00 | 43 | 1002.7 |
| 20260504220212 | 30 | 112 | 3.2 | 4.8 | 0.00 | 0.00 | 0.00 | 43 | 1002.9 |
| 20260504215708 | 30 | 110 | 3.2 | 4.8 | 0.00 | 0.00 | 0.00 | 42 | 1002.9 |
| 20260504215206 | 30 | 94 | 4.8 | 8.0 | 0.00 | 0.00 | 0.00 | 41 | 1003.0 |
| 20260504214701 | 30 | 37 | 1.6 | 3.2 | 0.00 | 0.00 | 0.00 | 41 | 1002.9 |
| 20260504214158 | 30 | 116 | 0.0 | 0.0 | 0.00 | 0.00 | 0.00 | 40 | 1003.1 |
| 20260504213655 | 30 | 100 | 3.2 | 4.8 | 0.00 | 0.00 | 0.00 | 41 | 1003.0 |
| 20260504213151 | 30 | 98 | 6.4 | 11.3 | 0.00 | 0.00 | 0.00 | 40 | 1003.1 |
| 20260504212648 | 30 | 131 | 0.0 | 1.6 | 0.00 | 0.00 | 0.00 | 41 | 1003.3 |
| 20260504212144 | 30 | 91 | 3.2 | 3.2 | 0.00 | 0.00 | 0.00 | 40 | 1002.9 |
| 20260504211642 | 30 | 135 | 1.6 | 1.6 | 0.00 | 0.00 | 0.00 | 40 | 1003.1 |
| 20260504211138 | 30 | 138 | 3.2 | 8.0 | 0.00 | 0.00 | 0.00 | 40 | 1003.2 |
| 20260504210636 | 31 | 183 | 6.4 | 9.7 | 0.00 | 0.00 | 0.00 | 35 | 1003.1 |
| 20260504210132 | 31 | 155 | 8.0 | 11.3 | 0.00 | 0.00 | 0.00 | 34 | 1003.3 |
| 20260504205630 | 30 | 160 | 4.8 | 4.8 | 0.00 | 0.00 | 0.00 | 35 | 1003.1 |
| 20260504205127 | 31 | 189 | 6.4 | 9.7 | 0.00 | 0.00 | 0.00 | 34 | 1003.4 |
| 20260504204626 | 31 | 150 | 4.8 | 9.7 | 0.00 | 0.00 | 0.00 | 34 | 1003.6 |
| 20260504204124 | 31 | 118 | 1.6 | 1.6 | 0.00 | 0.00 | 0.00 | 36 | 1003.7 |
| 20260504203622 | 31 | 191 | 4.8 | 8.0 | 0.00 | 0.00 | 0.00 | 35 | 1003.3 |
| 20260504203119 | 31 | 191 | 12.9 | 16.1 | 0.00 | 0.00 | 0.00 | 34 | 1003.6 |
| 20260504202614 | 32 | 151 | 0.0 | 0.0 | 0.00 | 0.00 | 0.00 | 35 | 1003.6 |
| 20260504202111 | 32 | 168 | 0.0 | 0.0 | 0.00 | 0.00 | 0.00 | 35 | 1003.7 |
| 20260504201608 | 31 | 162 | 0.0 | 1.6 | 0.00 | 0.00 | 0.00 | 33 | 1003.5 |
| 20260504201106 | 31 | 239 | 8.0 | 11.3 | 0.00 | 0.00 | 0.00 | 34 | 1003.8 |
| 20260504200603 | 31 | 188 | 1.6 | 3.2 | 0.00 | 0.00 | 0.00 | 35 | 1003.8 |
| 20260504200059 | 31 | 195 | 3.2 | 4.8 | 0.00 | 0.00 | 0.00 | 35 | 1003.9 |
| 20260504195555 | 30 | 147 | 1.6 | 1.6 | 0.00 | 0.00 | 0.00 | 35 | 1003.9 |
| 20260504195051 | 30 | 121 | 0.0 | 1.6 | 0.00 | 0.00 | 0.00 | 37 | 1004.5 |
| 20260504194548 | 31 | 155 | 0.0 | 0.0 | 0.00 | 0.00 | 0.00 | 36 | 1004.2 |
| 20260504194043 | 30 | 221 | 4.8 | 8.0 | 0.00 | 0.00 | 0.00 | 35 | 1004.2 |
| 20260504193540 | 31 | 199 | 1.6 | 3.2 | 0.00 | 0.00 | 0.00 | 36 | 1004.7 |
| 20260504193039 | 31 | 157 | 3.2 | 3.2 | 0.00 | 0.00 | 0.00 | 34 | 1004.3 |
| 20260504192537 | 31 | 134 | 0.0 | 0.0 | 0.00 | 0.00 | 0.00 | 37 | 1004.8 |
| 20260504192035 | 30 | 123 | 3.2 | 3.2 | 0.00 | 0.00 | 0.00 | 37 | 1004.7 |
| 20260504191533 | 30 | 131 | 0.0 | 0.0 | 0.00 | 0.00 | 0.00 | 38 | 1004.8 |
| 20260504191028 | 30 | 146 | 1.6 | 1.6 | 0.00 | 0.00 | 0.00 | 37 | 1004.9 |
| 20260504190525 | 30 | 182 | 4.8 | 4.8 | 0.00 | 0.00 | 0.00 | 36 | 1004.7 |
| 20260504190021 | 30 | 174 | 3.2 | 3.2 | 0.00 | 0.00 | 0.00 | 37 | 1004.7 |
| 20260504185518 | 29 | 167 | 3.2 | 3.2 | 0.00 | 0.00 | 0.00 | 38 | 1005.2 |
| 20260504185015 | 30 | 96 | 4.8 | 4.8 | 0.00 | 0.00 | 0.00 | 37 | 1005.1 |
| 20260504184510 | 30 | 270 | 3.2 | 3.2 | 0.00 | 0.00 | 0.00 | 37 | 1004.9 |
| 20260504184006 | 29 | 216 | 3.2 | 3.2 | 0.00 | 0.00 | 0.00 | 39 | 1005.0 |
| 20260504183503 | 29 | 165 | 0.0 | 0.0 | 0.00 | 0.00 | 0.00 | 38 | 1005.3 |
| 20260504183001 | 29 | 272 | 6.4 | 8.0 | 0.00 | 0.00 | 0.00 | 39 | 1005.0 |
| 20260504182458 | 29 | 136 | 0.0 | 0.0 | 0.00 | 0.00 | 0.00 | 39 | 1005.3 |
| 20260504181955 | 28 | 139 | 0.0 | 0.0 | 0.00 | 0.00 | 0.00 | 40 | 1005.4 |
| 20260504181452 | 27 | 123 | 3.2 | 8.0 | 0.00 | 0.00 | 0.00 | 40 | 1005.5 |
| 20260504180951 | 27 | 8 | 4.8 | 8.0 | 0.00 | 0.00 | 0.00 | 40 | 1005.4 |
| 20260504180449 | 27 | 267 | 3.2 | 4.8 | 0.00 | 0.00 | 0.00 | 41 | 1005.5 |
| 20260504175947 | 27 | 273 | 1.6 | 3.2 | 0.00 | 0.00 | 0.00 | 42 | 1005.7 |
| 20260504175444 | 27 | 180 | 0.0 | 0.0 | 0.00 | 0.00 | 0.00 | 42 | 1005.5 |
| 20260504174941 | 27 | 110 | 0.0 | 0.0 | 0.00 | 0.00 | 0.00 | 44 | 1005.5 |
| 20260504174439 | 27 | 128 | 1.6 | 1.6 | 0.00 | 0.00 | 0.00 | 42 | 1005.6 |
| 20260504173936 | 26 | 150 | 0.0 | 0.0 | 0.00 | 0.00 | 0.00 | 44 | 1005.8 |
| 20260504173432 | 26 | 141 | 6.4 | 9.7 | 0.00 | 0.00 | 0.00 | 44 | 1005.6 |
| 20260504172930 | 26 | 157 | 1.6 | 3.2 | 0.00 | 0.00 | 0.00 | 45 | 1005.6 |
| 20260504172426 | 26 | 279 | 1.6 | 3.2 | 0.00 | 0.00 | 0.00 | 43 | 1006.0 |
| 20260504171923 | 27 | 208 | 4.8 | 4.8 | 0.00 | 0.00 | 0.00 | 44 | 1005.7 |
| 20260504171420 | 26 | 187 | 6.4 | 11.3 | 0.00 | 0.00 | 0.00 | 42 | 1005.8 |
| 20260504170917 | 26 | 259 | 4.8 | 4.8 | 0.00 | 0.00 | 0.00 | 44 | 1005.6 |
| 20260504170413 | 25 | 235 | 1.6 | 8.0 | 0.00 | 0.00 | 0.00 | 45 | 1005.5 |
| 20260504160332 | 23 | 137 | 6.4 | 9.7 | 0.00 | 0.00 | 0.00 | 50 | 1005.7 |
| 20260504150756 | 21 | 160 | 4.8 | 8.0 | 0.00 | 0.00 | 0.00 | 54 | 1005.8 |
| 20260504150253 | 21 | 339 | 6.4 | 11.3 | 0.00 | 0.00 | 0.00 | 54 | 1006.0 |
| 20260504141223 | 19 | 263 | 3.2 | 3.2 | 0.00 | 0.00 | 0.00 | 58 | 1006.3 |
| 20260504140720 | 19 | 243 | 8.0 | 9.7 | 0.00 | 0.00 | 0.00 | 58 | 1006.2 |
| 20260504140215 | 19 | 156 | 6.4 | 8.0 | 0.00 | 0.00 | 0.00 | 57 | 1006.0 |
| 20260504130644 | 16 | 119 | 1.6 | 1.6 | 0.00 | 0.00 | 0.00 | 65 | 1006.2 |
| 20260504130140 | 16 | 210 | 4.8 | 4.8 | 0.00 | 0.00 | 0.00 | 65 | 1006.2 |
| 20260504120104 | 15 | 218 | 3.2 | 3.2 | 0.00 | 0.00 | 0.00 | 65 | 1006.0 |
| 20260504110532 | 16 | 203 | 1.6 | 1.6 | 0.00 | 0.00 | 0.00 | 61 | 1006.3 |